Showing default

COSMOS 1833, 17589

Orbit data source: Space-Track

COSMOS 1833, 17589 is a payload satellite owned by GRU (CIS) in LEO that was launched on Wed, 18 Mar 1987 UTC via a ZENIT-2 launch vehicle from the Tyuratam Missile And Space Complex (TTMTR). Payload-class satellites include a variety of spacecraft equipped with specific instruments for various scientific and technological missions. These include communications satellites like Starlink; space stations such as the ISS; scientific satellites like the Hubble; Earth observation satellites from companies like Planet Labs, Umbra, and HawkEye 360; GPS; miniature CubeSats for education and research; and military/defense satellites.

Loading next visibility...
Identifier
17589, 1987-027A
Orbit
LEO
Country
Flag of CISCIS
Related business
Manufacturer
Yuzhnoe
Mission
Defense Sigint
Bus & Motor
TSELINA-2, Unknown motor
Mass
3,250 kg wet, 3,250 kg dry
Launch date (UTC)
1987-03-18 (39 years ago)
Launch vehicle
ZENIT-2
Launch site
Tyuratam Missile And Space Complex (TTMTR)
Object type
Payload
Rocket body
Debris
Shape & HBR
Cyl + 2 Pan + 1 Ant, 11.3 m
Radar Cross Section
16.265 m², Large (>1 m²)

Expand to show TLE details & history
Last TLE update: 15 hours ago

TLE from 15 hours ago
0 COSMOS 1833
1 17589U 87027A   25296.59764499 -.00000316  00000-0 -14349-3 0  9997
2 17589  70.9166 254.1796 0020137  43.5945 316.6763 14.13029437990945
Epoch: 2025-10-23T14:20Z
TLE epoch observation values (Epoch: 2025-10-23T14:20:36.527Z)
Latitude
0.00002°
Longitude
6.7728°
Altitude
840.841 km
Speed
7.438 km/s
True Right ascension
16h 56m 43s
True Declination
0° 00' 00"
Sunlit
Object was in daylight at epoch
Visualization orbit readout
Latitude
Unknown
Longitude
Unknown
Altitude
Unknown
Speed
Unknown
Apparent Right ascension
Unknown
Apparent Declination
Unknown
Sunlit
N/A
Visualization observer readout
Local Sidereal Time
00:50:30
Azimuth
Unknown
Elevation
Unknown
Doppler factor
Unknown
Orbital elements
Apogee altitude
861.508 km
Perigee altitude
832.409 km
Semi-major axis
7,225.096 km
Eccentricity
0.00201
Inclination
70.9166°
RAAN
254.1796°
Arg. of periapsis
43.5945°
True anomaly
316.51769°
Mean anomaly
316.6763°
Eccentric anomaly
316.59702°
Mean motion
3.53409 °/min
Orbital period
101.86 mins
BSTAR
-0.00014349
Loading maneuver chart data...
Computing Atmospheric mass density...
Loading historical data...
Loading historical data...
Loading historical data...
Loading historical data...
Loading historical data...
Loading historical data...
Loading historical data...

Documentation

Showing up to 5 results
|